�������l�o���
Date,Time,MP-1(��Sv/h),MP-2(��Sv/h),MP-3(��Sv/h),MP-4(��Sv/h),MP-5(��Sv/h),MP-6(��Sv/h),MP-7(��Sv/h),MP-8(��Sv/h),����,����(m/s),���J
2019/06/29,00:00,0.734,1.034,0.713,1.287,0.948,0.425,0.742,0.702,�k�k��,1.9,�L
2019/06/29,00:10,0.733,1.035,0.712,1.287,0.946,0.425,0.741,0.702,�k,2.6,�L
2019/06/29,00:20,0.734,1.034,0.712,1.288,0.948,0.425,0.738,0.702,�k,2.6,�L
2019/06/29,00:30,0.735,1.035,0.712,1.284,0.947,0.425,0.739,0.703,�k,2.6,��
2019/06/29,00:40,0.734,1.032,0.711,1.286,0.945,0.425,0.738,0.702,�k,2.5,��
2019/06/29,00:50,0.733,1.032,0.712,1.287,0.947,0.426,0.739,0.702,�k�k��,1.5,�L
2019/06/29,01:00,0.734,1.033,0.711,1.286,0.944,0.425,0.738,0.702,�k��,0.9,�L
2019/06/29,01:10,0.734,1.032,0.713,1.286,0.946,0.425,0.740,0.703,�k��,1.2,��
2019/06/29,01:20,0.732,1.035,0.713,1.286,0.946,0.428,0.740,0.703,�k�k��,1.2,��
2019/06/29,01:30,0.735,1.033,0.713,1.288,0.946,0.425,0.741,0.702,�k�k��,2.2,��
2019/06/29,01:40,0.731,1.033,0.711,1.287,0.948,0.424,0.740,0.702,�k�k��,2.8,��
2019/06/29,01:50,0.733,1.033,0.712,1.287,0.944,0.425,0.739,0.702,�k��,2.3,��
2019/06/29,02:00,0.734,1.035,0.712,1.287,0.947,0.425,0.739,0.702,�k�k��,2.0,��
2019/06/29,02:10,0.734,1.034,0.712,1.287,0.948,0.424,0.740,0.702,�k�k��,1.9,��
2019/06/29,02:20,0.733,1.033,0.712,1.288,0.945,0.425,0.739,0.702,�k�k��,1.9,��
2019/06/29,02:30,0.733,1.035,0.712,1.287,0.945,0.424,0.740,0.702,�k�k��,1.5,��
2019/06/29,02:40,0.734,1.035,0.712,1.287,0.944,0.424,0.739,0.701,�k�k��,2.2,��
2019/06/29,02:50,0.735,1.035,0.713,1.288,0.947,0.425,0.741,0.702,�k�k��,2.0,��
2019/06/29,03:00,0.734,1.033,0.712,1.290,0.946,0.425,0.739,0.702,�k�k��,1.9,��
2019/06/29,03:10,0.734,1.034,0.712,1.287,0.947,0.424,0.741,0.702,�k,2.2,��
2019/06/29,03:20,0.732,1.033,0.712,1.289,0.946,0.424,0.741,0.701,�k�k��,2.6,��
2019/06/29,03:30,0.735,1.035,0.711,1.288,0.946,0.425,0.738,0.703,�k,2.0,��
2019/06/29,03:40,0.734,1.032,0.710,1.289,0.945,0.424,0.739,0.702,�k�k��,1.7,�L
2019/06/29,03:50,0.734,1.033,0.712,1.288,0.946,0.426,0.738,0.702,�k�k��,2.0,�L
2019/06/29,04:00,0.733,1.034,0.713,1.288,0.947,0.426,0.739,0.701,�k�k��,2.0,�L
2019/06/29,04:10,0.732,1.034,0.711,1.289,0.948,0.425,0.742,0.703,���k��,1.2,��
2019/06/29,04:20,0.734,1.031,0.711,1.288,0.948,0.426,0.740,0.702,�k��,1.2,�L
2019/06/29,04:30,0.734,1.033,0.711,1.286,0.948,0.425,0.739,0.702,���k��,0.9,��
2019/06/29,04:40,0.733,1.037,0.713,1.288,0.947,0.427,0.741,0.703,���k��,1.5,��
2019/06/29,04:50,0.734,1.035,0.713,1.289,0.948,0.426,0.741,0.702,���k��,1.5,��
2019/06/29,05:00,0.734,1.035,0.711,1.288,0.947,0.425,0.742,0.704,���k��,1.9,��
2019/06/29,05:10,0.735,1.034,0.711,1.286,0.948,0.425,0.741,0.703,���k��,1.7,��
2019/06/29,05:20,0.734,1.036,0.712,1.287,0.948,0.425,0.741,0.702,���k��,2.3,��
2019/06/29,05:30,0.733,1.036,0.712,1.288,0.949,0.425,0.740,0.702,�k��,1.5,��
2019/06/29,05:40,0.733,1.034,0.711,1.288,0.947,0.425,0.740,0.702,�k��,1.4,��
2019/06/29,05:50,0.734,1.036,0.713,1.290,0.948,0.425,0.739,0.700,���k��,1.9,��
2019/06/29,06:00,0.734,1.035,0.712,1.290,0.946,0.425,0.742,0.704,�k��,1.5,��
2019/06/29,06:10,0.734,1.036,0.711,1.289,0.945,0.425,0.740,0.701,�k�k��,1.4,��
2019/06/29,06:20,0.735,1.037,0.713,1.287,0.947,0.424,0.740,0.701,�k�k��,0.9,��
2019/06/29,06:30,0.733,1.038,0.713,1.290,0.948,0.424,0.740,0.701,�k��,1.5,��
2019/06/29,06:40,0.735,1.036,0.711,1.289,0.950,0.424,0.741,0.702,���k��,1.7,��
2019/06/29,06:50,0.734,1.036,0.711,1.290,0.947,0.426,0.740,0.702,�k��,1.5,��
2019/06/29,07:00,0.734,1.036,0.715,1.288,0.947,0.424,0.740,0.701,�k��,2.0,��
2019/06/29,07:10,0.734,1.035,0.715,1.290,0.948,0.426,0.740,0.702,�k�k��,1.7,��
2019/06/29,07:20,0.736,1.037,0.713,1.288,0.947,0.426,0.741,0.700,�k,1.7,��
2019/06/29,07:30,0.733,1.036,0.712,1.291,0.946,0.424,0.740,0.700,�k��,1.5,��
2019/06/29,07:40,0.734,1.036,0.713,1.288,0.947,0.423,0.740,0.703,�k��,1.5,��
2019/06/29,07:50,0.733,1.036,0.714,1.288,0.947,0.424,0.741,0.702,�k��,1.5,��
2019/06/29,08:00,0.733,1.036,0.712,1.290,0.945,0.424,0.740,0.700,�k��,1.4,��
2019/06/29,08:10,0.732,1.036,0.714,1.291,0.948,0.425,0.740,0.702,���k��,1.4,��
2019/06/29,08:20,0.735,1.037,0.712,1.290,0.948,0.424,0.742,0.700,�k��,1.1,�L
2019/06/29,08:30,0.734,1.035,0.712,1.292,0.948,0.425,0.740,0.701,���쓌,1.5,�L
2019/06/29,08:40,0.735,1.035,0.713,1.289,0.948,0.426,0.741,0.700,���쓌,1.7,�L
2019/06/29,08:50,0.735,1.037,0.711,1.290,0.945,0.424,0.741,0.700,���쓌,2.2,�L
2019/06/29,09:00,0.735,1.035,0.713,1.292,0.947,0.423,0.739,0.702,���쓌,2.0,��
2019/06/29,09:10,0.735,1.035,0.713,1.291,0.947,0.424,0.740,0.701,���쓌,1.7,��
2019/06/29,09:20,0.737,1.035,0.714,1.291,0.948,0.426,0.739,0.701,��,1.5,��
2019/06/29,09:30,0.736,1.038,0.713,1.292,0.948,0.426,0.740,0.703,���k��,1.4,��
2019/06/29,09:40,0.734,1.038,0.714,1.289,0.949,0.425,0.742,0.701,���쓌,1.1,��
2019/06/29,09:50,0.735,1.038,0.714,1.291,0.949,0.425,0.741,0.704,���k��,1.7,��
2019/06/29,10:00,0.734,1.035,0.714,1.292,0.948,0.427,0.740,0.702,��,0.9,��
2019/06/29,10:10,0.736,1.037,0.714,1.292,0.949,0.427,0.741,0.704,���k��,1.2,��
2019/06/29,10:20,0.735,1.035,0.713,1.291,0.947,0.424,0.742,0.699,��,1.7,��
2019/06/29,10:30,0.733,1.036,0.712,1.291,0.949,0.426,0.743,0.701,���쓌,2.0,��
2019/06/29,10:40,0.736,1.035,0.715,1.293,0.951,0.424,0.742,0.700,���쓌,2.0,��
2019/06/29,10:50,0.735,1.035,0.714,1.292,0.949,0.425,0.743,0.702,���k��,1.5,��
2019/06/29,11:00,0.736,1.037,0.713,1.292,0.947,0.425,0.743,0.700,���쓌,1.5,��
2019/06/29,11:10,0.737,1.038,0.711,1.292,0.949,0.426,0.742,0.702,���쓌,1.5,��
2019/06/29,11:20,0.736,1.038,0.711,1.293,0.951,0.425,0.743,0.701,���쓌,1.2,��
2019/06/29,11:30,0.737,1.038,0.713,1.293,0.950,0.424,0.742,0.701,��,1.2,��
2019/06/29,11:40,0.739,1.039,0.713,1.291,0.951,0.427,0.744,0.703,��,1.4,��
2019/06/29,11:50,0.736,1.041,0.713,1.291,0.950,0.425,0.744,0.701,���쓌,1.2,��
2019/06/29,12:00,0.738,1.041,0.712,1.290,0.951,0.425,0.742,0.702,���쓌,1.2,��
2019/06/29,12:10,0.739,1.041,0.713,1.291,0.951,0.424,0.743,0.702,�쓌,0.8,��
2019/06/29,12:20,0.736,1.039,0.714,1.294,0.951,0.425,0.743,0.702,��쓌,0.9,��
2019/06/29,12:30,0.736,1.042,0.715,1.296,0.954,0.427,0.742,0.701,��,0.9,��
2019/06/29,12:40,0.739,1.042,0.716,1.294,0.953,0.425,0.743,0.701,�쓌,1.2,��
2019/06/29,12:50,0.738,1.045,0.716,1.297,0.953,0.426,0.743,0.701,��쓌,1.7,��
2019/06/29,13:00,0.740,1.045,0.715,1.295,0.952,0.427,0.742,0.701,�쓌,1.2,�L
2019/06/29,13:10,0.738,1.043,0.716,1.296,0.951,0.427,0.742,0.702,���쓌,0.6,�L
2019/06/29,13:20,0.739,1.044,0.715,1.293,0.952,0.426,0.743,0.702,��쓌,0.9,��
2019/06/29,13:30,0.738,1.043,0.715,1.296,0.953,0.427,0.743,0.702,���쓌,1.4,��
2019/06/29,13:40,0.739,1.044,0.715,1.294,0.952,0.426,0.745,0.702,�쓌,1.2,��
2019/06/29,13:50,0.740,1.042,0.716,1.293,0.952,0.427,0.743,0.702,��,0.9,��
2019/06/29,14:00,0.736,1.043,0.716,1.296,0.952,0.426,0.741,0.702,��쓌,0.9,��
2019/06/29,14:10,0.738,1.043,0.719,1.295,0.954,0.426,0.742,0.701,��쐼,1.5,�L
2019/06/29,14:20,0.740,1.043,0.718,1.293,0.952,0.427,0.743,0.703,��,1.1,��
2019/06/29,14:30,0.739,1.045,0.716,1.297,0.953,0.426,0.742,0.703,��쐼,1.2,�L
2019/06/29,14:40,0.740,1.045,0.717,1.295,0.953,0.428,0.742,0.704,�쐼,0.6,�L
2019/06/29,14:50,0.740,1.044,0.718,1.295,0.952,0.427,0.744,0.702,��,1.2,�L
2019/06/29,15:00,0.740,1.045,0.717,1.296,0.954,0.427,0.743,0.703,��,0.8,�L
2019/06/29,15:10,0.740,1.048,0.719,1.296,0.956,0.428,0.744,0.703,��쓌,1.2,�L
2019/06/29,15:20,0.738,1.044,0.719,1.297,0.955,0.428,0.742,0.704,��쓌,0.6,�L
2019/06/29,15:30,0.740,1.046,0.720,1.297,0.957,0.430,0.744,0.702,���쓌,0.8,�L
2019/06/29,15:40,0.739,1.046,0.718,1.297,0.957,0.429,0.743,0.703,���쓌,1.2,�L
2019/06/29,15:50,0.740,1.046,0.718,1.299,0.956,0.428,0.745,0.703,-,CALM,�L
2019/06/29,16:00,0.741,1.044,0.718,1.298,0.956,0.429,0.744,0.704,-,CALM,�L
2019/06/29,16:10,0.739,1.045,0.717,1.296,0.958,0.429,0.745,0.704,-,CALM,�L
2019/06/29,16:20,0.739,1.046,0.716,1.296,0.958,0.430,0.744,0.704,�쐼,0.6,�L
2019/06/29,16:30,0.740,1.045,0.718,1.297,0.955,0.429,0.744,0.703,���쐼,0.8,��
2019/06/29,16:40,0.738,1.045,0.719,1.296,0.953,0.429,0.744,0.702,��,0.6,��
2019/06/29,16:50,0.740,1.044,0.717,1.297,0.954,0.430,0.744,0.702,�k��,0.9,�L
2019/06/29,17:00,0.740,1.046,0.719,1.297,0.955,0.430,0.744,0.703,�k��,1.1,�L
2019/06/29,17:10,0.740,1.044,0.719,1.296,0.955,0.429,0.744,0.705,�k��,1.2,�L
2019/06/29,17:20,0.739,1.044,0.718,1.298,0.955,0.431,0.743,0.702,�k��,1.4,�L
2019/06/29,17:30,0.739,1.045,0.718,1.294,0.955,0.430,0.743,0.701,�k��,1.9,�L
2019/06/29,17:40,0.739,1.043,0.718,1.295,0.954,0.430,0.742,0.702,�k�k��,2.3,�L
2019/06/29,17:50,0.739,1.040,0.717,1.296,0.954,0.429,0.742,0.703,�k��,2.2,�L
2019/06/29,18:00,0.736,1.041,0.716,1.298,0.953,0.430,0.743,0.701,�k�k��,2.5,�L
2019/06/29,18:10,0.738,1.038,0.718,1.297,0.952,0.429,0.742,0.703,�k�k��,2.6,�L
2019/06/29,18:20,0.735,1.038,0.715,1.294,0.951,0.429,0.741,0.702,�k,1.9,�L
2019/06/29,18:30,0.736,1.036,0.716,1.294,0.950,0.429,0.741,0.700,�k,3.3,�L
2019/06/29,18:40,0.735,1.037,0.716,1.292,0.947,0.428,0.741,0.701,�k,2.6,�L
2019/06/29,18:50,0.735,1.034,0.715,1.292,0.950,0.428,0.740,0.701,�k,2.3,�L
2019/06/29,19:00,0.737,1.032,0.714,1.288,0.946,0.429,0.739,0.703,�k,3.1,�L
2019/06/29,19:10,0.735,1.029,0.714,1.286,0.945,0.428,0.739,0.700,�k,3.1,�L
2019/06/29,19:20,0.735,1.029,0.714,1.286,0.944,0.429,0.737,0.700,�k�k��,4.3,�L
2019/06/29,19:30,0.733,1.022,0.712,1.277,0.938,0.429,0.739,0.699,�k,2.2,�L
2019/06/29,19:40,0.729,1.014,0.706,1.265,0.934,0.430,0.736,0.697,�k,5.1,�L
2019/06/29,19:50,0.734,1.017,0.711,1.264,0.936,0.430,0.737,0.696,�k�k��,6.7,�L
2019/06/29,20:00,0.734,1.015,0.708,1.264,0.934,0.429,0.735,0.696,�k�k��,7.5,�L
2019/06/29,20:10,0.730,1.010,0.707,1.258,0.930,0.428,0.735,0.695,�k�k��,7.4,�L
2019/06/29,20:20,0.729,1.009,0.706,1.254,0.929,0.428,0.731,0.694,�k�k��,9.0,�L
2019/06/29,20:30,0.726,1.007,0.704,1.249,0.925,0.427,0.733,0.693,�k�k��,8.1,�L
2019/06/29,20:40,0.727,1.006,0.705,1.250,0.924,0.428,0.732,0.693,�k�k��,8.4,�L
2019/06/29,20:50,0.728,1.006,0.707,1.249,0.924,0.430,0.732,0.692,�k�k��,8.6,�L
2019/06/29,21:00,0.729,1.004,0.704,1.246,0.925,0.429,0.730,0.695,�k�k��,8.3,�L
2019/06/29,21:10,0.725,0.998,0.702,1.245,0.921,0.428,0.730,0.693,�k�k��,7.3,�L
2019/06/29,21:20,0.726,1.002,0.702,1.245,0.921,0.426,0.730,0.692,�k�k��,6.9,�L
2019/06/29,21:30,0.725,1.003,0.701,1.245,0.921,0.428,0.727,0.690,�k�k��,6.4,�L
2019/06/29,21:40,0.726,1.005,0.700,1.246,0.923,0.427,0.726,0.689,�k�k��,6.3,�L
2019/06/29,21:50,0.725,1.002,0.700,1.245,0.919,0.427,0.727,0.690,�k�k��,5.4,�L
2019/06/29,22:00,0.725,1.002,0.699,1.246,0.918,0.424,0.727,0.690,�k�k��,4.7,�L
2019/06/29,22:10,0.725,1.004,0.700,1.244,0.917,0.424,0.727,0.690,�k,1.7,�L
2019/06/29,22:20,0.725,1.005,0.699,1.245,0.919,0.424,0.726,0.690,�k,2.6,�L
2019/06/29,22:30,0.725,1.006,0.698,1.247,0.917,0.423,0.727,0.690,�k�k��,1.9,��
2019/06/29,22:40,0.725,1.005,0.698,1.249,0.918,0.422,0.727,0.690,�k�k��,1.7,��
2019/06/29,22:50,0.725,1.008,0.699,1.249,0.918,0.423,0.727,0.691,�k�k��,2.9,��
2019/06/29,23:00,0.725,1.009,0.697,1.250,0.920,0.421,0.725,0.692,�k�k��,4.4,��
2019/06/29,23:10,0.725,1.009,0.699,1.252,0.920,0.421,0.729,0.688,�k�k��,4.5,�L
2019/06/29,23:20,0.724,1.007,0.699,1.252,0.919,0.421,0.727,0.690,�k�k��,3.7,�L
2019/06/29,23:30,0.724,1.011,0.696,1.254,0.920,0.421,0.728,0.691,�k�k��,3.7,��
2019/06/29,23:40,0.726,1.010,0.698,1.255,0.921,0.422,0.728,0.690,�k�k��,3.3,��
2019/06/29,23:50,0.723,1.008,0.699,1.254,0.922,0.419,0.727,0.691,�k�k��,4.0,��
